Volver al catálogo

STARLINK-30859

ActivoComunicacionesVLEO
NORAD 58371·PAYLOAD·🇺🇸 United States

Lanzado Nov 18, 2023 desde Cape Canaveral Space Force Station

Loading…

Próximos Pases (próximas 24 horas)

TLE

ActualizadoSource: CelesTrak SupGP

Época: Sep 15, 2026, 01:41 UTC

1 58371C 23177W   26258.07062500  .00006516  00000+0  23593-3 0  2587
2 58371  43.0026   1.4130 0001487 269.4455 193.3093 15.27584872    13

Sigue STARLINK-30859 en tiempo real con AllMySat

Download on the App Store